Cloud_Cover
5 50 100 89 4 2 0 0 0 0 0 0 0 5 4 24 61 12 9 92 63 12 61 100 100 100 100 100 100 100 100 100 100 100 99 99 100 100 100 99 39 15 5 5 4 3 83 0 2
5 81 98 40 1 1 0 0 0 0 0 0 0 4 4 25 11 85 5 5 5 97 97 99 100 100 100 100 100 100 100 100 89 24 46 70 51 88 100 100 7 6 5 3 5 2 2 4 2
5 65 39 0 0 0 0 0 0 0 0 0 0 0 0 49 42 7 5 5 5 5 5 12 17 60 100 32 27 5 39 21 5 14 98 56 100 46 29 38 10 6 2 5 4 40 18 4 0
2 39 7 0 0 0 0 0 0 0 0 0 0 0 0 2 4 5 5 5 5 5 5 88 24 27 21 6 5 8 5 5 5 23 69 85 100 24 53 28 17 38 5 5 2 5 99 5 3
0 0 0 0 0 0 0 0 29 0 0 0 0 5 53 6 25 3 5 5 11 10 5 20 11 5 5 5 5 5 5 5 6 24 74 65 100 98 29 82 57 36 30 10 24 3 5 5 22
0 0 0 0 0 0 0 0 57 0 0 0 0 3 36 5 64 4 14 33 5 11 17 6 7 5 5 5 10 7 5 5 13 5 23 88 100 100 100 53 30 100 90 8 8 7 3 5 6
0 0 0 0 0 0 0 0 44 0 0 0 0 39 22 0 44 51 15 10 39 88 34 97 42 5 5 5 51 44 10 5 5 14 62 63 93 81 100 70 36 99 100 72 8 99 5 5 12
0 0 0 0 0 0 0 0 0 0 0 0 0 6 40 0 5 5 16 26 5 13 44 18 6 14 20 5 5 5 0 5 2 14 67 100 61 88 88 99 98 32 94 38 5 60 96 38 57
0 0 0 0 0 0 0 0 0 0 0 0 0 0 0 0 7 60 79 83 37 19 88 6 5 5 5 3 4 0 3 26 5 35 66 98 97 93 65 75 63 30 94 93 60 20 88 94 80
1 0 0 0 0 0 0 0 0 0 0 2 82 34 0 4 47 100 100 100 46 16 38 20 5 4 1 0 1 9 34 87 59 88 100 100 64 74 45 5 5 8 58 15 74 5 92 100 96
0 4 0 0 0 0 0 0 0 0 0 0 92 92 31 16 30 47 42 25 4 5 13 18 9 5 5 24 16 12 5 8 90 100 99 95 78 34 5 5 5 5 50 59 92 63 60 99 100
0 2 4 2 0 0 0 0 0 0 0 0 0 0 0 0 12 100 67 30 100 95 85 92 99 98 89 78 92 18 20 13 100 94 81 100 100 66 16 91 21 10 36 91 98 92 76 100 100
0 4 1 0 1 0 0 0 0 0 0 0 0 0 0 4 41 73 24 6 5 5 5 5 60 84 97 100 91 53 100 21 10 89 96 100 90 72 82 96 100 54 32 100 100 97 100 100 100
0 0 2 0 0 0 0 0 0 0 0 0 0 0 0 5 3 62 5 4 94 4 4 5 100 100 100 100 72 73 86 7 15 14 22 71 49 79 65 24 40 98 46 83 98 94 100 100 100
0 0 0 0 0 0 0 3 0 0 5 0 0 0 0 0 5 100 67 5 5 4 5 5 6 99 72 98 19 13 9 5 6 5 5 57 51 32 51 17 31 56 94 100 100 100 99 100 100
0 0 0 0 0 3 0 2 73 5 5 0 5 6 0 0 5 43 99 100 15 6 5 5 5 5 67 51 43 22 55 5 5 13 34 39 9 45 71 72 92 100 100 100 100 100 100 100 100
0 0 0 0 4 4 4 5 5 5 5 3 82 71 12 1 8 56 23 100 43 5 4 4 5 5 5 13 5 45 16 8 89 80 100 100 100 100 11 100 100 100 100 100 100 82 100 100 93
0 0 0 2 0 2 4 5 5 4 3 12 76 85 97 43 93 81 38 96 61 3 4 4 16 36 64 88 83 58 99 89 100 100 100 100 100 100 100 100 100 100 100 100 100 100 91 48 96
0 0 5 0 4 0 0 0 0 0 0 5 100 99 100 99 12 94 70 67 72 12 5 84 19 16 100 93 100 100 100 96 100 100 100 100 100 100 100 100 100 100 100 100 92 93 100 100 90
2 4 98 52 5 4 6 4 4 0 0 8 43 82 82 31 67 88 66 23 47 7 57 48 100 100 100 100 100 100 100 100 100 100 100 100 100 100 100 100 100 100 100 99 100 100 100 98 49
2 33 53 5 5 5 36 1 0 3 0 5 94 99 96 82 64 86 100 58 69 86 63 96 100 100 100 100 100 100 100 100 100 100 100 100 100 100 100 100 100 100 100 100 100 100 100 92 100
6 70 5 5 0 6 5 1 3 3 0 37 39 100 53 100 100 85 95 96 33 59 82 100 98 100 100 100 100 100 100 100 100 100 100 100 100 100 100 100 100 100 100 100 100 100 100 100 100
6 5 2 2 0 5 6 1 4 1 0 5 5 98 91 100 100 100 88 100 99 98 100 97 100 100 100 100 100 100 100 100 100 100 100 100 100 99 88 74 99 100 100 100 100 100 100 100 100
6 5 4 0 2 0 5 2 0 1 0 0 5 19 100 100 22 100 100 100 100 100 100 100 100 100 100 100 100 100 100 93 100 100 100 100 100 100 75 3 44 97 100 100 98 100 98 100 100
6 35 4 0 0 0 0 2 5 2 0 0 0 4 23 63 65 100 100 100 100 100 100 100 100 100 100 100 100 100 100 100 100 76 100 100 100 99 94 89 85 10 24 43 55 98 97 100 100
0 22 5 3 0 0 0 0 5 0 0 0 0 0 4 5 100 99 95 100 100 100 99 100 100 100 100 100 100 100 100 100 89 100 75 100 100 100 100 98 100 100 59 18 31 70 86 75 100
2 5 5 5 0 3 1 3 5 2 0 0 0 0 1 5 74 98 48 100 100 100 94 100 100 100 100 100 100 100 100 100 100 56 100 100 100 23 100 99 42 98 6 0 96 40 41 53 78
1 5 19 29 6 5 5 0 0 0 0 0 0 0 1 6 99 97 90 100 100 100 100 100 100 100 100 100 100 100 100 100 100 100 100 86 98 57 100 41 35 16 54 43 34 41 15 14 20
5 4 5 18 5 5 3 0 0 0 0 0 1 5 26 94 76 57 87 100 100 99 100 100 100 100 100 100 100 100 100 100 100 100 100 100 100 96 100 52 1 5 8 12 32 90 76 60 20
0 62 5 10 5 5 0 0 0 0 0 0 42 98 95 56 100 56 100 100 100 100 87 39 100 100 100 100 100 100 100 100 100 100 100 35 70 47 13 5 5 0 33 95 25 5 5 0 3